CW9236 Weather Reports


Display with metric or nautical units.
time (UTC)temp
F
wind
direction
speed
MPH
gust
MPH
rain 1hr
in
rain 24hr
in
rain mn
in
humidity
%
barometer
mb
20260505195511 83 69 1.0 9.0 0.00 0.00 0.00 74 1009.0
20260505194512 83 63 2.0 9.0 0.00 0.00 0.00 73 1009.1
20260505194004 83 84 3.0 8.0 0.00 0.00 0.00 73 1009.1
20260505193509 82 69 3.0 7.0 0.00 0.00 0.00 74 1009.1
20260505193020 82 50 3.0 7.0 0.00 0.00 0.00 74 1009.1
20260505192509 82 281 1.0 4.0 0.00 0.00 0.00 73 1009.1
20260505192012 83 49 1.0 5.0 0.00 0.00 0.00 72 1009.1
20260505191523 83 62 2.0 5.0 0.00 0.00 0.00 73 1009.1
20260505191009 83 51 1.0 5.0 0.00 0.00 0.00 74 1009.2
20260505190512 82 32 1.0 6.0 0.00 0.00 0.00 74 1009.2
20260505190034 82 53 2.0 7.0 0.00 0.00 0.00 74 1009.1
20260505185513 82 69 1.0 7.0 0.00 0.00 0.00 74 1009.2
20260505185005 82 51 1.0 6.0 0.00 0.00 0.00 75 1009.2
20260505184514 81 271 1.0 6.0 0.00 0.00 0.00 76 1009.3
20260505184007 81 271 0.0 6.0 0.00 0.00 0.00 76 1009.4
20260505183508 82 79 1.0 4.0 0.00 0.00 0.00 76 1009.4
20260505183018 82 53 1.0 4.0 0.00 0.00 0.00 76 1009.4
20260505182507 81 65 1.0 5.0 0.00 0.00 0.00 76 1009.4
20260505182013 81 269 2.0 5.0 0.00 0.00 0.00 76 1009.4
20260505181527 81 63 2.0 5.0 0.00 0.00 0.00 76 1009.5
20260505181011 81 57 0.0 6.0 0.00 0.00 0.00 77 1009.6
20260505180511 81 59 2.0 6.0 0.00 0.00 0.00 76 1009.5
20260505180026 81 54 2.0 6.0 0.00 0.00 0.00 77 1009.5
20260505175510 80 44 1.0 4.0 0.00 0.00 0.00 78 1009.6
20260505175014 80 49 0.0 6.0 0.00 0.00 0.00 79 1009.7
20260505174517 80 67 1.0 6.0 0.00 0.00 0.00 78 1009.7
20260505174007 80 71 2.0 6.0 0.00 0.00 0.00 78 1009.8
20260505173507 80 24 1.0 4.0 0.00 0.00 0.00 79 1009.8
20260505173034 79 80 1.0 4.0 0.00 0.00 0.00 79 1009.9
20260505172511 79 22 1.0 3.0 0.00 0.00 0.00 80 1010.0
20260505172010 80 53 0.0 3.0 0.00 0.00 0.00 80 1010.0
20260505171538 79 58 0.0 4.0 0.00 0.00 0.00 80 1010.0
20260505171011 79 34 1.0 6.0 0.00 0.00 0.00 80 1010.0
20260505170510 79 38 2.0 6.0 0.00 0.00 0.00 81 1010.1
20260505170027 79 40 1.0 4.0 0.00 0.00 0.00 80 1010.0
20260505165511 79 59 2.0 5.0 0.00 0.00 0.00 80 1010.1
20260505165004 79 60 2.0 5.0 0.00 0.00 0.00 80 1010.1
20260505164519 79 63 2.0 5.0 0.00 0.00 0.00 80 1010.1
20260505164007 79 250 0.0 3.0 0.00 0.00 0.00 81 1010.1
20260505163508 79 246 1.0 5.0 0.00 0.00 0.00 81 1010.0
20260505163025 79 55 1.0 5.0 0.00 0.00 0.00 81 1010.0
20260505162509 79 36 0.0 4.0 0.00 0.00 0.00 82 1010.1
20260505162011 78 59 1.0 4.0 0.00 0.00 0.00 82 1010.0
20260505161526 78 44 1.0 4.0 0.00 0.00 0.00 82 1010.0
20260505161011 78 277 0.0 3.0 0.00 0.00 0.00 83 1010.0
20260505160515 78 65 1.0 6.0 0.00 0.00 0.00 82 1010.0
20260505152504 75 54 1.0 4.0 0.00 0.00 0.00 87 1009.8
20260505152004 75 49 1.0 4.0 0.00 0.00 0.00 86 1009.8
20260505151511 76 82 1.0 3.0 0.00 0.00 0.00 86 1009.8
20260505151004 76 67 0.0 6.0 0.00 0.00 0.00 85 1009.7
20260505150507 76 73 1.0 6.0 0.00 0.00 0.00 85 1009.7
20260505140508 76 56 2.0 6.0 0.00 0.00 0.00 85 1009.5
20260505125011 73 71 1.0 3.0 0.00 0.00 0.00 89 1009.4
20260505124507 72 79 1.0 4.0 0.00 0.00 0.00 90 1009.1
20260505124007 72 352 1.0 6.0 0.00 0.00 0.00 90 1009.2
20260505123503 72 78 2.0 6.0 0.00 0.00 0.00 90 1009.1
20260505123012 72 57 1.0 3.0 0.00 0.00 0.00 90 1009.3
20260505122507 72 59 0.0 3.0 0.00 0.00 0.00 90 1009.2
20260505122008 71 76 1.0 3.0 0.00 0.00 0.00 90 1009.1
20260505121518 71 63 1.0 3.0 0.00 0.00 0.00 90 1009.0
20260505120507 71 360 0.0 3.0 0.00 0.00 0.00 91 1009.0
20260505120051 71 75 0.0 3.0 0.00 0.00 0.00 90 1008.8
20260505115508 71 61 1.0 3.0 0.00 0.00 0.00 90 1008.8
20260505115010 71 61 0.0 3.0 0.00 0.00 0.00 90 1008.8
20260505114002 71 72 1.0 3.0 0.00 0.00 0.00 90 1008.7
20260505112513 71 59 1.0 3.0 0.00 0.00 0.00 90 1009.2
20260505111521 71 71 1.0 2.0 0.00 0.00 0.00 90 1008.9
20260505110511 71 92 0.0 4.0 0.00 0.00 0.00 90 1008.8
20260505102015 71 88 1.0 3.0 0.00 0.00 0.00 89 1008.9
20260505101525 71 53 0.0 4.0 0.00 0.00 0.00 89 1008.9
20260505101010 71 76 1.0 4.0 0.00 0.00 0.00 89 1008.8
20260505100508 71 86 1.0 3.0 0.00 0.00 0.00 89 1008.8
20260505100029 71 83 1.0 3.0 0.00 0.00 0.00 89 1008.9
20260505095008 71 64 1.0 4.0 0.00 0.00 0.00 89 1009.1
20260505094512 71 54 0.0 3.0 0.00 0.00 0.00 89 1009.1
20260505094006 71 74 0.0 3.0 0.00 0.00 0.00 89 1009.0
20260505093506 70 67 1.0 3.0 0.00 0.00 0.00 89 1008.9
20260505093022 70 65 1.0 3.0 0.00 0.00 0.00 89 1009.0
20260505092507 70 78 0.0 2.0 0.00 0.00 0.00 89 1009.0
20260505092010 70 63 0.0 2.0 0.00 0.00 0.00 89 1009.0
20260505091528 70 73 0.0 2.0 0.00 0.00 0.00 89 1009.1
20260505091012 70 64 0.0 2.0 0.00 0.00 0.00 89 1009.2
20260505090510 70 67 0.0 2.0 0.00 0.00 0.00 89 1009.2
20260505090038 70 64 0.0 2.0 0.00 0.00 0.00 89 1009.2
20260505085510 70 74 0.0 2.0 0.00 0.00 0.00 89 1009.2
20260505085006 70 71 0.0 2.0 0.00 0.00 0.00 89 1009.2
20260505084007 70 60 0.0 2.0 0.00 0.00 0.00 89 1009.2
20260505083507 70 65 0.0 2.0 0.00 0.00 0.00 88 1009.2
20260505083021 70 69 0.0 1.0 0.00 0.00 0.00 88 1009.3
20260505082508 70 65 0.0 1.0 0.00 0.00 0.00 88 1009.5
20260505082010 70 68 0.0 2.0 0.00 0.00 0.00 88 1009.5
20260505081527 70 73 0.0 2.0 0.00 0.00 0.00 88 1009.6
20260505081008 70 64 0.0 2.0 0.00 0.00 0.00 87 1009.6
20260505080507 70 72 0.0 3.0 0.00 0.00 0.00 87 1009.6
20260505080033 70 74 0.0 3.0 0.00 0.00 0.00 87 1009.7
20260505075506 70 59 0.0 2.0 0.00 0.00 0.00 87 1009.7
20260505075007 70 72 0.0 2.0 0.00 0.00 0.00 87 1009.8
20260505074516 70 67 1.0 2.0 0.00 0.00 0.00 86 1009.8
20260505074007 70 59 0.0 3.0 0.00 0.00 0.00 86 1009.9
20260505073508 70 57 1.0 3.0 0.00 0.00 0.00 86 1009.8
20260505073040 70 69 0.0 2.0 0.00 0.00 0.00 86 1009.8
20260505072508 70 67 0.0 2.0 0.00 0.00 0.00 86 1009.8
20260505072011 70 64 1.0 3.0 0.00 0.00 0.00 86 1009.9
20260505071525 70 75 0.0 3.0 0.00 0.00 0.00 86 1009.9
20260505071011 70 68 1.0 3.0 0.00 0.00 0.00 85 1010.0
20260505070512 71 69 0.0 4.0 0.00 0.00 0.00 85 1010.1
20260505070028 71 67 1.0 5.0 0.00 0.00 0.00 85 1010.0
20260505065505 70 72 1.0 5.0 0.00 0.00 0.00 85 1010.0
20260505065006 71 67 1.0 4.0 0.00 0.00 0.00 85 1010.1
20260505064535 71 74 1.0 4.0 0.00 0.00 0.00 85 1010.1
20260505064007 71 107 1.0 5.0 0.00 0.00 0.00 84 1010.1
20260505063509 71 73 1.0 5.0 0.00 0.00 0.00 84 1010.2
20260505063026 71 67 1.0 5.0 0.00 0.00 0.00 84 1010.3
20260505062509 71 90 1.0 5.0 0.00 0.00 0.00 84 1010.4
20260505062011 71 74 1.0 4.0 0.00 0.00 0.00 84 1010.5
20260505061540 71 80 1.0 4.0 0.00 0.00 0.00 84 1010.7
20260505061010 71 78 1.0 3.0 0.00 0.00 0.00 84 1010.7
20260505060511 71 79 1.0 3.0 0.00 0.00 0.00 83 1010.9
20260505060033 71 69 1.0 4.0 0.00 0.00 0.00 83 1010.8
20260505055511 71 80 2.0 4.0 0.00 0.00 0.00 83 1010.8
20260505055011 71 85 1.0 3.0 0.00 0.00 0.00 83 1010.7
20260505054532 71 82 1.0 5.0 0.00 0.00 0.00 83 1010.7
20260505054007 71 67 2.0 5.0 0.00 0.00 0.00 83 1010.7
20260505053507 71 80 2.0 4.0 0.00 0.00 0.00 83 1010.7
20260505053008 71 68 1.0 4.0 0.00 0.00 0.00 83 1010.8
20260505052504 71 68 1.0 4.0 0.00 0.00 0.00 82 1010.9
20260505052004 71 72 1.0 3.0 0.00 0.00 0.00 82 1011.1
20260505051514 71 68 1.0 3.0 0.00 0.00 0.00 82 1011.1
20260505051006 71 63 1.0 4.0 0.00 0.00 0.00 82 1011.1
20260505050507 71 61 1.0 4.0 0.00 0.00 0.00 82 1011.1
20260505041515 72 71 2.0 5.0 0.00 0.00 0.00 80 1011.2
20260505041010 72 96 2.0 6.0 0.00 0.00 0.00 80 1011.1
20260505040023 72 86 2.0 7.0 0.00 0.00 0.00 79 1011.2
20260505035010 72 79 2.0 6.0 0.00 0.00 0.00 79 1011.3
20260505034506 72 73 2.0 6.0 0.00 0.00 0.00 79 1011.1
20260505034006 72 84 2.0 6.0 0.00 0.00 0.00 78 1011.2
20260505033503 72 79 2.0 8.0 0.00 0.00 0.00 78 1011.4
20260505033009 72 72 3.0 8.0 0.00 0.00 0.00 78 1011.4
20260505032505 73 65 2.0 6.0 0.00 0.00 0.00 78 1011.5
20260505032005 73 78 2.0 6.0 0.00 0.00 0.00 77 1011.5
20260505031530 73 81 2.0 8.0 0.00 0.00 0.00 77 1011.4
20260505031009 73 84 2.0 8.0 0.00 0.00 0.00 77 1011.3
20260505030509 73 65 3.0 7.0 0.00 0.00 0.00 76 1011.2
20260505030020 73 71 2.0 8.0 0.00 0.00 0.00 76 1011.3
20260505025511 73 65 2.0 8.0 0.00 0.00 0.00 76 1011.3
20260505025014 73 67 2.0 7.0 0.00 0.00 0.00 76 1011.2
20260505024508 73 84 2.0 6.0 0.00 0.00 0.00 76 1011.2
20260505024003 73 76 2.0 6.0 0.00 0.00 0.00 76 1011.3
20260505023503 73 88 2.0 8.0 0.00 0.00 0.00 76 1011.4
20260505023013 73 63 2.0 8.0 0.00 0.00 0.00 75 1011.3
20260505022506 73 84 2.0 6.0 0.00 0.00 0.00 75 1011.3
20260505022007 74 72 3.0 8.0 0.00 0.00 0.00 75 1011.2
20260505021520 74 105 2.0 8.0 0.00 0.00 0.00 75 1011.0
20260505021011 74 63 1.0 6.0 0.00 0.00 0.00 74 1011.1
20260505020508 74 45 2.0 6.0 0.00 0.00 0.00 74 1011.0
20260505020030 74 86 1.0 8.0 0.00 0.00 0.00 73 1011.0
20260505015513 74 63 4.0 8.0 0.00 0.00 0.00 73 1010.9
20260505015009 75 81 3.0 7.0 0.00 0.00 0.00 73 1011.0
20260505014529 75 84 3.0 7.0 0.00 0.00 0.00 73 1011.0
20260505014015 75 63 3.0 8.0 0.00 0.00 0.00 73 1010.9
20260505013514 75 75 1.0 8.0 0.00 0.00 0.00 73 1010.9
20260505013025 75 59 3.0 8.0 0.00 0.00 0.00 73 1010.7
20260505012506 75 71 3.0 9.0 0.00 0.00 0.00 73 1010.7
20260505012011 75 109 3.0 9.0 0.00 0.00 0.00 72 1010.7
20260505011529 75 79 2.0 8.0 0.00 0.00 0.00 73 1010.6
20260505011006 75 57 3.0 8.0 0.00 0.00 0.00 72 1010.6
20260505010508 75 64 2.0 8.0 0.00 0.00 0.00 72 1010.6
20260505010023 75 63 2.0 8.0 0.00 0.00 0.00 72 1010.7
20260505005507 75 86 3.0 8.0 0.00 0.00 0.00 71 1010.7
20260505005008 76 96 2.0 6.0 0.00 0.00 0.00 71 1010.6
20260505004542 76 105 2.0 7.0 0.00 0.00 0.00 71 1010.5
20260505004011 76 71 1.0 7.0 0.00 0.00 0.00 72 1010.6
20260505003509 76 74 3.0 7.0 0.00 0.00 0.00 71 1010.6
20260505003016 76 85 2.0 6.0 0.00 0.00 0.00 71 1010.4
20260505002514 76 72 3.0 6.0 0.00 0.00 0.00 70 1010.6
20260505002012 76 76 2.0 6.0 0.00 0.00 0.00 70 1010.5
20260505001522 76 80 2.0 6.0 0.00 0.00 0.00 70 1010.5
20260505001017 76 66 2.0 7.0 0.00 0.00 0.00 69 1010.5
20260505000508 76 67 2.0 7.0 0.00 0.00 0.00 69 1010.6
20260505000039 76 88 2.0 7.0 0.00 0.00 0.00 69 1010.7
20260504235510 77 91 2.0 7.0 0.00 0.00 0.00 69 1010.7
20260504235009 77 80 3.0 6.0 0.00 0.00 0.00 68 1010.7
20260504234526 77 96 2.0 7.0 0.00 0.00 0.00 69 1010.7
20260504234008 77 86 3.0 7.0 0.00 0.00 0.00 68 1010.7
20260504233513 77 72 3.0 8.0 0.00 0.00 0.00 68 1010.9
20260504231523 78 80 3.0 7.0 0.00 0.00 0.00 67 1010.9
20260504231012 78 83 3.0 7.0 0.00 0.00 0.00 67 1010.9
20260504230511 78 71 3.0 7.0 0.00 0.00 0.00 67 1010.9
20260504230026 78 96 2.0 7.0 0.00 0.00 0.00 66 1011.2
20260504225507 78 72 3.0 7.0 0.00 0.00 0.00 64 1011.1
20260504225012 78 70 3.0 6.0 0.00 0.00 0.00 64 1011.1
20260504224514 79 83 3.0 8.0 0.00 0.00 0.00 64 1011.1
20260504224011 79 79 2.0 8.0 0.00 0.00 0.00 63 1011.1
20260504223507 79 86 3.0 6.0 0.00 0.00 0.00 63 1011.3
20260504223020 79 93 2.0 5.0 0.00 0.00 0.00 62 1011.2
20260504222510 79 68 2.0 8.0 0.00 0.00 0.00 61 1011.3
20260504222007 79 60 3.0 8.0 0.00 0.00 0.00 61 1011.3
20260504221505 79 97 2.0 7.0 0.00 0.00 0.00 61 1011.4
20260504221008 79 53 1.0 8.0 0.00 0.00 0.00 62 1011.5
20260504220505 79 62 3.0 8.0 0.00 0.00 0.00 61 1011.6
20260504220012 79 64 1.0 5.0 0.00 0.00 0.00 61 1011.5
20260504215507 79 85 2.0 5.0 0.00 0.00 0.00 60 1011.5
20260504215008 80 76 2.0 5.0 0.00 0.00 0.00 61 1011.8
20260504214514 80 61 2.0 5.0 0.00 0.00 0.00 59 1011.7
20260504214009 80 123 3.0 6.0 0.00 0.00 0.00 58 1011.8
20260504213508 81 70 2.0 6.0 0.00 0.00 0.00 58 1011.8
20260504213023 80 63 1.0 6.0 0.00 0.00 0.00 59 1011.9
20260504212512 80 74 2.0 6.0 0.00 0.00 0.00 58 1012.1
20260504212002 80 60 2.0 5.0 0.00 0.00 0.00 59 1011.9
20260504211506 80 91 2.0 5.0 0.00 0.00 0.00 58 1012.0
20260504211005 80 85 2.0 7.0 0.00 0.00 0.00 57 1012.1
20260504210504 81 65 1.0 7.0 0.00 0.00 0.00 56 1012.2
20260504210018 81 59 1.0 6.0 0.00 0.00 0.00 56 1012.1
20260504205505 81 78 2.0 6.0 0.00 0.00 0.00 57 1012.2
20260504205008 81 59 2.0 6.0 0.00 0.00 0.00 56 1012.3
20260504204516 81 50 2.0 6.0 0.00 0.00 0.00 56 1012.5
20260504204010 81 64 1.0 4.0 0.00 0.00 0.00 56 1012.6
20260504203514 81 342 0.0 4.0 0.00 0.00 0.00 58 1012.6
20260504203027 81 97 1.0 4.0 0.00 0.00 0.00 56 1012.6
20260504202513 81 94 2.0 6.0 0.00 0.00 0.00 59 1012.6
20260504202007 81 55 1.0 6.0 0.00 0.00 0.00 56 1012.9
20260504201507 81 74 1.0 5.0 0.00 0.00 0.00 55 1012.9
20260504201004 81 71 3.0 5.0 0.00 0.00 0.00 58 1013.1
20260504200505 81 59 2.0 5.0 0.00 0.00 0.00 54 1013.2
20260504200013 82 77 1.0 5.0 0.00 0.00 0.00 57 1013.3